User: anonymous   Login
Location: Unspecified
(20.0000°S, 0.0000°E)
Time: 02:24:20
(UTC+00:00)
Language:

BEESAT - Orbit

View from above orbital plane
View from above orbital plane
View from above satellite
View from above satellite

Ground track
Ground track

The orbit data is extracted from the following two-line orbital elements,

1 35933U 09051C   19198.45544994  .00000068  00000-0  26263-4 0  9997
2 35933  98.5928   7.0447 0007102  91.2761 268.9249 14.56380954521074
Epoch (UTC): 17 July 2019 10:55:50
Eccentricity: 0.0007102
inclination: 98.5928°
perigee height: 700 km
apogee height: 710 km
right ascension of ascending node: 7.0447°
argument of perigee: 91.2761°
revolutions per day: 14.56380954
mean anomaly at epoch: 268.9249°
orbit number at epoch: 52107

The dashed part of the orbit path shows where the satellite is in the earth's shadow,  

DLR